Oceana NAS, VA

11:39 PM EDT on May 23, 2017 (GMT -0400)
Oceana Naval Air Station

Weather History for KNTU - April, 2014

Change the Weather History Date:

Saturday, April 26, 2014

  Actual Average Record
Temperature  
Mean Temperature 66 °F -  
Max Temperature 75 °F 67 °F 89 °F (2016)
Min Temperature 57 °F 48 °F 41 °F (2013)
Cooling Degree Days 1    
Growing Degree Days 16 (Base 50)    
Moisture  
Dew Point 47 °F    
Average Humidity 53    
Maximum Humidity 93    
Minimum Humidity 30    
Precipitation  
Precipitation 0.00 in - - ()
Sea Level Pressure  
Sea Level Pressure 29.85 in    
Wind  
Wind Speed 14 mph (West)    
Max Wind Speed 21 mph    
Max Gust Speed 28 mph    
Visibility 10 miles    
Events      
Averages and records for this station are not official NWS values.
T = Trace of Precipitation, MM = Missing Value Source: NWS Daily Summary

Daily Weather History Graph

Daily Weather History Graph

Search for Another Location

Airport or City:

Trip Planner

Search our weather history database for the weather conditions in past years. The results will help you decide how hot, cold, wet, or windy it might be!

Date:

Astronomy

Apr. 26, 2014 Rise Set
Actual Time 6:15 AM EDT 7:48 PM EDT
Civil Twilight 5:48 AM EDT 8:15 PM EDT
Nautical Twilight 5:15 AM EDT 8:48 PM EDT
Astronomical Twilight 4:40 AM EDT 9:23 PM EDT
Moon 4:34 AM EDT (4/26) 5:18 PM EDT (4/26)
Length of Visible Light 14h 27m
Length of Day
13h 32m
Waning Crescent, 8% of the Moon is Illuminated
Apr 26
Waning Crescent
Apr 29
New
May 6
First Quarter
May 14
Full
May 21
Last Quarter

Hourly Weather History & Observations

Time (EDT) Temp. Dew Point Humidity Pressure Visibility Wind Dir Wind Speed Gust Speed Precip Events Conditions
12:56 AM 62.1 °F 60.1 °F 93% 29.72 in 10.0 mi WSW 11.5 mph - N/A   Overcast
1:56 AM 63.0 °F 60.1 °F 90% 29.72 in 10.0 mi West 13.8 mph - N/A   Mostly Cloudy
2:56 AM 62.1 °F 57.9 °F 86% 29.73 in 10.0 mi NW 13.8 mph - N/A   Partly Cloudy
3:56 AM 60.1 °F 55.9 °F 86% 29.76 in 10.0 mi WNW 12.7 mph - N/A   Partly Cloudy
4:56 AM 59.0 °F 52.0 °F 78% 29.79 in 10.0 mi WNW 12.7 mph - N/A   Clear
5:56 AM 57.0 °F 50.0 °F 77% 29.82 in 10.0 mi NW 15.0 mph - N/A   Clear
6:56 AM 57.0 °F 46.0 °F 67% 29.87 in 10.0 mi WNW 11.5 mph - N/A   Scattered Clouds
7:56 AM 59.0 °F 43.0 °F 55% 29.90 in 10.0 mi NNW 18.4 mph 27.6 mph N/A   Mostly Cloudy
8:56 AM 61.0 °F 42.1 °F 50% 29.92 in 10.0 mi NNW 20.7 mph 25.3 mph N/A   Scattered Clouds
9:56 AM 64.0 °F 41.0 °F 43% 29.94 in 10.0 mi NW 19.6 mph 25.3 mph N/A   Scattered Clouds
10:56 AM 66.0 °F 42.1 °F 42% 29.95 in 10.0 mi NW 18.4 mph 25.3 mph N/A   Scattered Clouds
11:56 AM 69.1 °F 39.9 °F 35% 29.94 in 10.0 mi WNW 13.8 mph 21.9 mph N/A   Scattered Clouds
12:56 PM 71.1 °F 37.9 °F 30% 29.92 in 10.0 mi NNW 9.2 mph - N/A   Scattered Clouds
1:56 PM 71.1 °F 39.9 °F 32% 29.90 in 10.0 mi West 8.1 mph - N/A   Partly Cloudy
2:56 PM 75.0 °F 43.0 °F 32% 29.88 in 10.0 mi West 10.4 mph 18.4 mph N/A   Partly Cloudy
3:56 PM 75.0 °F 44.1 °F 33% 29.86 in 10.0 mi SW 13.8 mph - N/A   Clear
4:56 PM 75.9 °F 45.0 °F 33% 29.85 in 10.0 mi SW 16.1 mph 23.0 mph N/A   Clear
5:56 PM 75.9 °F 44.1 °F 32% 29.85 in 10.0 mi WSW 18.4 mph 24.2 mph N/A   Scattered Clouds
6:56 PM 75.0 °F 44.1 °F 33% 29.83 in 10.0 mi SW 15.0 mph - N/A   Partly Cloudy
7:56 PM 72.0 °F 46.0 °F 40% 29.84 in 10.0 mi SSW 12.7 mph - N/A   Scattered Clouds
8:56 PM 71.1 °F 46.0 °F 41% 29.84 in 10.0 mi SW 15.0 mph - N/A   Partly Cloudy
9:56 PM 69.1 °F 46.9 °F 45% 29.84 in 10.0 mi SSW 15.0 mph - N/A   Partly Cloudy
10:56 PM 66.0 °F 48.9 °F 54% 29.85 in 10.0 mi SSW 19.6 mph - N/A   Partly Cloudy
11:56 PM 64.9 °F 48.0 °F 54% 29.85 in 10.0 mi SW 17.3 mph - N/A   Partly Cloudy